Tracking 17884 objects as of 4-December-2016
HD Live streaming from Space Station
objects crossing your sky now

SL-16 DEB

Track SL-16 DEB now!
10-day predictions


NORAD ID: 36031
Int'l Code: 1996-051N
Perigee: 757.3 km
Apogee: 772.3 km
Inclination: 70.9 °
Period: 100.0 minutes
Semi major axis: 7135 km
RCS: 0.0057 m2 (small)
Launch date: September 4, 1996
Source: Commonwealth of Independent States (former USSR) (CIS)
Launch site: TYURATAM MISSILE AND SPACE COMPLEX (TTMTR)

Note: This is SATELLITE DEBRIS
Your satellite tracking list
Your tracking list is empty





NASA's NSSDC Master Catalog

Two Line Element Set (TLE):
1 36031U 96051N   16338.51518747  .00002976  00000-0  95489-3 0  9995
2 36031  70.8543   9.5911 0010501  12.4465 110.3609 14.40254428371089
Source of the keplerian elements: AFSPC